www.pogodaiklimat.ru

Погода и климат >> Архив погоды >> Индонезия >> Сабу


ПОГОДА в Сабу

  • Прогноз погоды в Сабу
  • Монитор погоды в Сабу

АРХИВ ПОГОДЫ в Сабу

Время (UTC), дата Ветер
(напр.,м/с)
 
Видим.   Явления Облачность Т
(С)
Тd
(С)
f
(%)
Тe
(С)
Тes
(С)
Комфортность P
(гПа)
Po
(гПа)
Тmin
(С)
Tmax
(С)
R
(мм)
R24
(мм)
S
(см)
00 14.01 З 3 12 км 6/3 400 м
[Cu med, cong Ac As Ci sp]
+29.6 +26.8 85 +46 +49 опасность
перегрева
1007.6 1005.3 +26.2 4
03 14.01 З 5 10 км в посл. час дождь 8/5 400 м
[Cu Sc Ac As Ci sp]
+30.9 +26.8 79 +48 +52 опасность
перегрева
1007.1 1004.9 0.0
06 14.01 ЮЗ 4 10 км 8/4 420 м
[Cu med, cong Ac As Ci sp]
+31.6 +26.3 74 +48 +53 опасность
перегрева
1005.6 1003.4
09 14.01 Ю 3 8000 м в посл. час дождь 9/5 400 м
[Cu med, cong Ac As Ci sp]
+29.6 +26.8 85 +46 +47 опасность
перегрева
1005.1 1002.9 0.0
12 14.01 СЗ 4 5000 м в посл. час гроза {дождь} 9/6 420 м
[Cu med, cong Ac As Ci sp]
+27.6 +25.5 88 +40 +40 очень
душно
1007.5 1005.3 +31.8 2
15 14.01 Ю 1 4000 м гроза, ливневой дождь 10/8 400 м
[Cb cap Ac As Ci sp]
+26.2 +24.6 91 +37 +37 очень
душно
1008.1 1005.9 0.0
18 14.01 штиль 0 2000 м гроза, ливневой дождь 10/8 400 м
[Cb cap Ac As Ci sp]
+24.5 +24.1 98 +34 +34 очень
душно
1006.7 1004.5 7
00 15.01 ЮЗ 1 14 км {гроза, дождь} 6/3 450 м
[Cu hum Ac As Ci sp]
+27.8 +24.0 80 +39 +43 очень
душно
1007.5 1005.3 +24.2 10
03 15.01 СЗ 2 12 км 6/4 450 м
[Cu med, cong Ac As Ci sp]
+30.6 +26.9 81 +48 +58 опасность
перегрева
1007.5 1005.3
06 15.01 З 2 12 км {дождь} 4/3 420 м
[Cu med, cong Ac As Ci sp]
+30.9 +26.5 77 +47 +57 опасность
перегрева
1006.0 1003.8 0.0
09 15.01 штиль 0 4000 м слаб. дождь 8/6 420 м
[Cu med, cong Ac As Ci sp]
+28.0 +25.6 87 +41 +42 опасность
перегрева
1005.8 1003.6 0.5
12 15.01 З 3 6000 м {дождь} 4/1 420 м
[Cu med, cong Ac As Ci sp]
+27.3 +24.9 87 +39 +39 очень
душно
1007.9 1005.7 +31.8 0.0
15 15.01 штиль 0 6000 м 5/3 420 м
[Cu med, cong Ac As Ci sp]
+26.5 +25.3 93 +38 +38 очень
душно
1009.0 1006.8
18 15.01 штиль 0 6000 м в посл. час дождь {гроза} 6/5 420 м
[Cb cap Ac As Ci fib]
+26.4 +25.3 94 +38 +38 очень
душно
1006.7 1004.5 0.3
00 16.01 ЮВ 1 12 км {гроза, дождь} 6/1 300 м
[Cu med, cong Ac As Ci sp]
+25.9 +25.4 97 +38 +43 очень
душно
1008.3 1006.1 +23.8 1
03 16.01 СЗ 2 8000 м осадки на расстоянии 6/4 420 м
[Cu med, cong Ac As Ci sp]
+29.9 +27.3 86 +48 +59 опасность
перегрева
1008.4 1006.2 3
06 16.01 С 2 10 км осадки на расстоянии 8/5 420 м
[Cu med, cong Ac As Ci sp]
+30.8 +27.1 81 +49 +55 опасность
перегрева
1007.0 1048.0 3
09 16.01 СЗ 1 12 км 8/5 420 м
[Cu med, cong Ac As Ci sp]
+29.6 +26.1 82 +45 +46 опасность
перегрева
1006.1 1003.9
12 16.01 С 2 6000 м 5/1 450 м
[Cu med, cong Ac As Ci sp]
+28.2 +26.2 89 +43 +43 опасность
перегрева
1008.0 1005.8 +31.0
15 16.01 В 2 5000 м в посл. час дождь 5/4 450 м
[Cu med, cong Ac trans Ci sp]
+26.8 +25.2 91 +39 +39 очень
душно
1009.6 1007.3 0.6
18 16.01 Ю 2 5000 м в посл. час дождь 4/3 450 м
[Cu med, cong Ac trans Ci sp]
+26.0 +24.6 92 +37 +37 очень
душно
1007.9 1005.7 0.0
00 17.01 штиль 0 14 км 5/1 450 м
[Cu med, cong Ac As Ci sp]
+27.9 +26.0 89 +42 +48 опасность
перегрева
1008.8 1006.6 +25.6 4
03 17.01 С 2 10 км осадки на расстоянии 6/4 420 м
[Cu med, cong Ac As Ci sp]
+31.2 +26.9 78 +49 +59 опасность
перегрева
1008.9 1006.7
06 17.01 СЗ 1 8000 м осадки на расстоянии 6/3 420 м
[Cu med, cong Ac As Ci sp]
+31.7 +26.6 74 +48 +59 опасность
перегрева
1007.2 1005.0
09 17.01 З 2 8000 м осадки на расстоянии 8/3 420 м
[Cu med, cong Ac As Ci sp]
+31.1 +26.1 75 +47 +48 опасность
перегрева
1007.1 1004.9
12 17.01 СЗ 2 6000 м 8/3 570 м
[Cu med, cong Ac As Ci sp]
+28.4 +26.0 87 +43 +43 опасность
перегрева
1009.1 1006.9 +32.4
15 17.01 Ю 2 6000 м 8/3 420 м
[Cu med, cong Ac As Ci sp]
+26.6 +23.6 84 +36 +36 очень
душно
1009.5 1007.3
18 17.01 СЗ 3 6000 м 9/4 420 м
[Cu med, cong Ac As Ci sp]
+28.1 +24.7 82 +40 +40 очень
душно
1007.6 1005.4
00 18.01 З 3 14 км 3/1 420 м
[Cu hum Ac trans Ci fib]
+29.9 +25.8 79 +45 +50 опасность
перегрева
1008.4 1006.2 +26.0
03 18.01 СЗ 2 14 км 4/3 420 м
[Cu hum Ac trans Ci fib]
+32.0 +26.6 73 +49 +63 опасность
перегрева
1008.9 1006.7
06 18.01 З 2 14 км 5/3 420 м
[Cu hum Ac trans Ci fib]
+31.6 +25.5 70 +46 +56 опасность
перегрева
1004.9 1007.1
09 18.01 ЮЗ 2 14 км в посл. час гроза 9/5 400 м
[Cb cap Ac As Ci fib]
+29.8 +24.1 72 +42 +42 опасность
перегрева
1007.1 1004.9
12 18.01 штиль 0 6000 м {гроза} 9/4 420 м
[Cu med, cong Ac As Ci fib]
+28.0 +25.6 87 +41 +41 опасность
перегрева
1008.8 1006.6
15 18.01 штиль 0 6000 м 6/4 420 м
[Cu med, cong Ac As Ci fib]
+27.0 +25.4 91 +39 +39 очень
душно
1009.6 1007.4
18 18.01 штиль 0 5000 м в посл. час дождь 9/5 400 м
[Cb cap Ac As Ci fib]
+26.4 +25.5 95 +39 +39 очень
душно
1007.8 1005.6 0.4
00 19.01 Ю 2 14 км {дождь} 6/3 420 м
[Cu hum Ac As Ci sp]
+27.9 +26.0 89 +42 +46 опасность
перегрева
1009.7 1007.5 +25.6 0.0
03 19.01 З 3 14 км 8/5 420 м
[Cu med, cong Ac As Ci sp]
+31.6 +26.9 76 +49 +55 опасность
перегрева
1009.7 1007.5
06 19.01 ЮЗ 2 14 км в посл. час дождь 8/4 420 м
[Cu med, cong Ac As Ci sp]
+29.4 +26.5 84 +45 +52 опасность
перегрева
1007.8 1005.5 0.0
09 19.01 З 4 14 км 5/3 420 м
[Cu hum Ac trans Ci fib]
+31.0 +26.0 75 +46 +47 опасность
перегрева
1007.2 1005.0
12 19.01 Ю 1 6000 м 4/1 420 м
[Cu hum Ac trans Ci fib]
+28.1 +25.7 87 +42 +42 опасность
перегрева
1009.1 1006.9 +32.1
15 19.01 Ю 1 6000 м 3/1 420 м
[Cu hum Ac trans Ci fib]
+26.8 +25.5 93 +39 +39 очень
душно
1010.1 1007.9
18 19.01 Ю 3 4000 м в посл. час дождь 8/5 400 м
[Cu med, cong Ac As Ci sp]
+25.2 +24.4 95 +35 +35 очень
душно
1008.2 1006.0 1
00 20.01 С 2 10 км в посл. час дождь 6/5 300 м
[Cu Sc Ac trans Ci fib]
+28.5 +26.2 87 +43 +46 опасность
перегрева
1009.2 1007.0 +25.1 2
03 20.01 З 2 12 км осадки на расстоянии 8/6 400 м
[Cu Sc Ac As Ci fib]
+30.4 +26.6 80 +47 +53 опасность
перегрева
1009.1 1006.9
06 20.01 З 2 10 км осадки на расстоянии 8/5 400 м
[Cu med, cong Ac As Ci fib]
+27.6 +27.1 97 +43 +49 опасность
перегрева
1007.3 1005.1 46
09 20.01 З 3 14 км {гроза, дождь} 9/4 420 м
[Cu med, cong Ac As Ci sp]
+29.0 +26.6 87 +45 +45 опасность
перегрева
1006.9 1004.7 1
12 20.01 Ю 1 6000 м {гроза, дождь} 4/3 450 м
[Cu hum Ac As Ci fib]
+27.4 +26.6 95 +42 +42 опасность
перегрева
1008.5 1006.3 +31.0 1
15 20.01 Ю 2 6000 м 5/3 450 м
[Cu hum Ac trans Ci fib]
+26.4 +25.9 97 +39 +39 очень
душно
1009.2 1007.0
18 20.01 Ю 2 6000 м 5/1 450 м
[Cu med, cong Ac As Ci fib]
+26.4 +25.6 95 +39 +39 очень
душно
1007.0 1004.8

 

Местоположение метеостанции Сабу (Индонезия): широта -10.50 долгота 121.83 высота над уровнем моря 26 м.

В архиве по умолчанию представлена погода в Сабу за последнюю неделю. Архивные данные за месяц целиком и за предыдущие месяцы, начиная с января 2011 года, Вы можете получить, выбрав интересующий диапазон дат из раскрывающегося списка и нажав кнопку "Ввод!".


*Определитесь, кто Вы:
робот инопланетянин человек

Внимание! Время в таблицах - всемирное. Для получения местного времени необходимо прибавить поправку, которая равна 8 ч.

Смотрите также архив погоды в соседних городах и на ближайших метеорологических станциях:

Погода на Роти (Индонезия) (138 км)
Погода в Аэропорту Умбу Механг Кунда (Индонезия) (188 км)
Погода в Купанге (Индонезия) (204 км)
Погода в Маумере (Индонезия) (213 км)
Погода в Рутенге (Индонезия) (257 км)
Погода в Ларантуке (Индонезия) (278 км)
Погода на Алоре (Индонезия) (393 км)
Погода в Биме (Индонезия) (406 км)
Погода на Острове Брауз (Западная Австралия, Австралия) (443 км)
Погода в Сумбава-Бесаре (Индонезия) (534 км)

Пояснения к столбцам:

Ветер - указаны скорость ветра в м/с - средняя за 10 мин, порывы в срок и между сроками (в фигурных скобках) и направление, откуда дует ветер: С - северный, СВ - северо-восточный, В - восточный, ЮВ - юго-восточный, Ю - южный, ЮЗ - юго-западный, З - западный, СЗ - северо-западный.
Видимость - горизонтальная дальность видимости в метрах или километрах. При видимости от 1 до 10 км при отсутствии осадков обычно наблюдается дымка, при ухудшении видимости до 1 км и менее - туман. В сухую погоду видимость может ухудшаться дымом, пылью или мглою.
Явления - указаны атмосферные явления, наблюдавшиеся в срок или в последний час перед сроком; фигурными скобками обозначены явления, наблюдавшиеся между сроками (за 1-3 часа до срока); квадратными скобками обозначены град или гололедные отложения с указанием их диаметра в мм.
Облачность - указаны через наклонную черту общая и нижняя облачность в баллах и высота нижней границы облаков в метрах; квадратными скобками обозначены формы облаков: Ci - перистые, Cs - перисто-слоистые, Cc - перисто-кучевые, Ac - высококучевые, As - высокослоистые, Sc - слоисто-кучевые, Ns - слоисто-дождевые, Cu - кучевые, Cb - кучево-дождевые. Подробнее классификацию облаков см. в Атласе облаков (PDF).
T - Температура воздуха - температура, измеренная на высоте 2 м над землей.
Td - Температура точки росы - температура, при понижении до которой содержащийся в воздухе водяной пар достигнет насыщения.
f - Относительная влажность воздуха - влажноcть воздуха, измеренная на высоте 2 м над землей.
Te - Эффективная температура - температура, которую ощущает одетый по сезону человек в тени. Характеристика душности погоды. При расчете учитывается влияние влажности воздуха и скорости ветра на теплоощущения человека.
Tes - Эффективная температура на солнце - температура, которую ощущает человек, с поправкой на солнечный нагрев. Характеристика знойности погоды. Зависит от высоты солнца над горизонтом, облачности и скорости ветра. Ночью, в пасмурную погоду, а также при ветре 12 м/с и более поправка равна нулю.
P - Атмосферное давление - приведенное к уровню моря атмосферное давление.
Po - Атмосферное давление - измеренное на уровне метеостанции атмосферное давление.
Tmin - Минимальная температура - минимум температуры воздуха на высоте 2 м над землей.
Tmax - Максимальная температура - максимум температуры воздуха на высоте 2 м над землей.
R - Количество осадков - Количество выпавших осадков за период времени, мм. При наведении курсора мыши на число - период времени, за который выпало указанное количество осадков.
R24 - Количество осадков - Количество выпавших осадков за 24 часа, мм.
S - Снежный покров - Высота снежного покрова, см. При наведении курсора мыши на число - состояние снежного покрова и степень покрытия местности в баллах.